Showing default

OV1-9, 2610

Orbit data source: Space-Track

OV1-9, 2610 is a payload satellite owned by USAF OAR (US) in LEO that was launched on Sun, 11 Dec 1966 UTC via an ATLAS D launch vehicle from the Air Force Western Test Range (AFWTR). Payloads include a variety of satellites, spacecraft, and rockets equipped with specific instruments for various scientific and technological missions. These include communications satellites like Starlink; space stations such as the ISS; scientific satellites like the Hubble; Earth observation satellites from companies like Planet Labs, Umbra, and HawkEye 360; GPS; miniature CubeSats for education and research; and military/defense satellites.

Loading next visibility...
OV1-9 details
Identifier
2610, 1966-111A
Orbit
LEO
Last TLE update16 hours ago
Origin
Flag of USUSAF OAR (US)
ManufacturerGD/Convair
MissionDefense Technology
Bus & MotorOV1, Unknown motor
Mass106 kg wet, 106 kg dry
Launch date (UTC)
1966-12-11 (58 years ago)
Launch vehicle
ATLAS D
Launch site
Air Force Western Test Range (AFWTR)
Object type
Payload
Rocket body
Debris
Shape & HBRDomed Cyl, 1.4 m
Radar Cross Section0.946 m², Medium (>0.1 m² and < 1m²)

Expand to show TLE details & history

TLE from 16 hours ago
0 OV1-9
1 02610U 66111A   25044.95345288  .00001247  00000-0  49523-3 0  9993
2 02610  99.0952  66.2449 2276606  43.8100 332.2513 10.39019230182302
Epoch: 2025-02-13T22:52Z
Definitive object data (Epoch: 2025-02-13T22:52:58.328Z)
Latitude-0.00011°
Longitude-61.22029°
Altitude846.612 km
Speed8.09 km/s
True Right ascension04h 24m 58s
True Declination0° 00' 00"
Sunlit
Object was in daylight at TLE epoch
Visualization TLE readout
Latitude-74.9342°
Longitude-24.53584°
Altitude3,165.01 km
Speed6.224 km/s
Apparent Right ascension05h 47m 50s
Apparent Declination-61° 22' 14"
Sunlit
Object is in daylight
Visualization observer readout
Local Sidereal Time17:15:44
Azimuth190.28° SSW
Elevation-67.989°
Doppler factor1
Orbital elements
Apogee altitude4,509.734 km
Perigee altitude471.583 km
Semi-major axis8,868.796 km
Eccentricity0.2276606
Inclination99.0952°
RAAN66.2449°
Arg. of periapsis43.81°
True anomaly316.30376°
Mean anomaly332.2513°
Eccentric anomaly324.71686°
Mean motion2.59864 °/min
BSTAR0.00049523
Orbital period138.53 mins
Loading maneuver chart data...
Loading historical data...
Loading historical data...
Loading historical data...
Loading historical data...
Loading historical data...
Loading historical data...
Loading historical data...
Other satellites on launch #111 in the year 1966 (1966-12-11 UTC)

OV1-9 Visibility forecast

Observer location: undefined°, undefined

Span
Click to sort rows by Start time (UTC) header in descending order
Start Az.
Max El. time (UTC)
Max El. Az.
Max El.
End time (UTC)
End Az.
20 mins2025-02-14 15:32:44.895Z350.906° N2025-02-14 15:39:44.895Z288.621° WNW32.915°2025-02-14 15:52:44.895Z231.404° WSW
22 mins2025-02-15 12:23:44.895Z47.456° ENE2025-02-15 12:31:44.895Z103.185° ESE27.835°2025-02-15 12:45:44.895Z155.783° SSE
|